Tiempo atmosférico en la estación meteorológica de Berga, Barcelona (690 m.)



Fecha
DESCASC
Temp. máxima en grados centígrados (hora)
DESCASC
Temp. mínima en grados centígrados (hora)
DESCASC
Temp. media en grados centígrados
DESCASC
Racha de viento máxima en m/sg (hora)
DESCASC
Velocidad máxima media en intervalos de 10 minutos(hora)
DESCASC
Precipitaciones diarias en mm
DESCASC
Precipitaciones de 00:00 a 06:00 en mm
DESCASC
Precipitaciones de 06:00 a 12:00 en mm
DESCASC
Precipitaciones de 12:00 a 18:00 en mm
DESCASC
Precipitaciones de 18:00 a 24:00 en mm
DESCASC
25-04-2019 12 (16:00) 6.3 (23:59) 9.2 12.22 (12:10) 7.22 (11:40) 10.6 2.6 4.8 2.6 0.6
24-04-2019 14.4 (16:20) 6.3 (06:40) 10.3 14.72 (15:00) 9.17 (15:10) 0.2 0.2 0 0 0
23-04-2019 16 (11:40) 9.6 (07:30) 12.8 11.67 (16:30) 7.22 (16:40) 5.2 0 0.2 4.8 0.2
22-04-2019 15.7 (15:00) 10.5 (00:00) 13.1 16.94 (15:40) 6.67 (15:40) 0 0 0 0 0
21-04-2019 14.4 (16:20) 7.3 (00:00) 10.8 14.17 (14:10) 6.67 (14:10) 1.6 1.6 0 0 0
20-04-2019 17.5 (11:30) 7.4 (00:00) 12.5 12.22 (11:30) 5.28 (07:50) 10.6 0 0 0 10.6
19-04-2019 19.1 (15:20) 12.2 (00:00) 15.7 13.89 (06:30) 7.78 (06:30) 0 0 0 0 0
18-04-2019 17.8 (15:40) 8.9 (00:00) 13.3 10 (23:00) 6.11 (23:00) 0 0 0 0 0
17-04-2019 18.4 (16:30) 7.7 (00:00) 13 8.61 (14:00) 4.72 (13:40) 0 0 0 0 0
16-04-2019 16.3 (17:10) 6.1 (00:00) 11.2 8.33 (02:30) 5.83 (02:40) 1.2 1.2 0 0 0
15-04-2019 15.7 (16:40) 5.7 (00:00) 10.7 6.67 (13:20) 4.44 (17:40) 0 0 0 0 0
14-04-2019 20.1 (16:00) 5.5 (00:00) 12.8 9.17 (15:20) 5.83 (15:20) 0 0 0 0 0
13-04-2019 19.2 (17:10) 1.7 (00:00) 10.5 8.61 (18:40) 6.11 (18:30) 0 0 0 0 0
12-04-2019 18.9 (15:30) 5.5 (00:00) 12.2 8.89 (15:20) 3.61 (15:20) 0 0 0 0 0
11-04-2019 16.7 (15:20) 6.3 (00:00) 11.5 12.78 (11:20) 5.28 (11:40) 0 0 0 0 0
10-04-2019 15.2 (16:40) 1.6 (00:00) 8.4 8.06 (19:10) 5.28 (19:10) 0 0 0 0 0
09-04-2019 11.3 (11:50) 4.7 (00:00) 8 9.72 (05:50) 5.83 (05:40) 5.4 3.2 0 2.2 0
08-04-2019 16.5 (15:40) 3.1 (00:00) 9.8 6.11 (15:40) 3.33 (13:50) 1.2 0 0 0.6 0.6
07-04-2019 12.8 (12:50) 1.4 (00:00) 7.1 7.22 (13:50) 4.72 (15:20) 0 0 0 0 0
06-04-2019 10.3 (15:30) 3 (00:00) 6.7 14.17 (13:20) 8.06 (13:10) 8.8 8.8 0 0 0
05-04-2019 9.1 (14:10) 0 (00:00) 4.6 5.28 (00:10) 2.78 (07:00) 14.4 0 0.2 0.6 13.6
04-04-2019 12.1 (15:50) -0.4 (00:00) 5.9 10.28 (17:20) 6.67 (17:30) 0 0 0 0 0
03-04-2019 11.2 (13:30) 3.9 (00:00) 7.5 9.44 (11:20) 6.39 (14:10) 1.4 0 1.2 0 0.2
02-04-2019 16.6 (15:40) 4.9 (00:00) 10.8 11.94 (18:20) 7.22 (18:20) 11.4 0 0 0 11.4
01-04-2019 19.2 (15:00) 6.6 (00:00) 12.9 8.89 (15:00) 5.28 (17:50) 0 0 0 0 0
31-03-2019 15.4 (17:00) 2.7 (00:00) 9 5.28 (06:50) 3.33 (15:20) 0 0 0 0 0
30-03-2019 16.2 (15:50) 1 (00:00) 8.6 6.67 (15:40) 3.89 (17:30) 0 0 0 0 0
29-03-2019 15.8 (13:30) 4.1 (00:00) 10 6.39 (13:40) 3.33 (13:40) 0 0 0 0 0
28-03-2019 16.9 (15:50) 2.4 (00:00) 9.6 8.33 (12:40) 4.72 (13:00) 0 0 0 0 0
27-03-2019 17.2 (15:20) 2.2 (00:00) 9.7 9.17 (00:10) 3.89 (17:20) 0 0 0 0 0

Gráficas

Temp. máximas Temp. mínimas Temp. medias Precipitaciones Rachas de viento máximas Velocidades máximas media en intervalos de 10 minutos

Datos horarios

Fecha y hora oficial Temperatura (ºC) Velocidad del viento (km/h) Dirección del viento Racha (km/h) Dirección de racha Precipitación (mm) Presión (hPa) Tendencia (hPa) Humedad (%)
2019-04-25 23:00:00 7 5 Este 10 Este 0 -- -- 93
2019-04-25 22:00:00 8 5 Este 8 Sudoeste 0 -- -- 92
2019-04-25 21:00:00 8.7 4 Oeste 11 Nordeste 0 -- -- 90
2019-04-25 20:00:00 9.8 5 Nordeste 13 Sudoeste 0.4 -- -- 89
2019-04-25 19:00:00 10.2 6 Sur 22 Sudoeste 0.2 -- -- 80
2019-04-25 18:00:00 11.6 4 Sudeste 12 Sur 0 -- -- 90
2019-04-25 17:00:00 11.1 5 Sudoeste 17 Oeste 1.2 -- -- 91
2019-04-25 16:00:00 12 7 Oeste 10 Oeste 0 -- -- 83
2019-04-25 15:00:00 10 5 Sur 15 Sudoeste 0.2 -- -- 87
2019-04-25 14:00:00 9.2 12 Sudoeste 18 Oeste 0.6 -- -- 89
2019-04-25 13:00:00 8.8 7 Este 44 Oeste 0.6 -- -- 88
2019-04-25 12:00:00 9.3 18 Oeste 44 Sudoeste 0.6 -- -- 78
2019-04-25 11:00:00 10.5 16 Sudoeste 38 Oeste 0.2 -- -- 82
2019-04-25 10:00:00 10.5 19 Sudoeste 32 Sudoeste 1.8 -- -- 97
2019-04-25 09:00:00 10 17 Sudoeste 26 Sudoeste 2 -- -- 97
2019-04-25 08:00:00 9.7 10 Sudoeste 15 Sudoeste 0.2 -- -- 97
2019-04-25 07:00:00 9.4 6 Sudoeste 10 Oeste 0 -- -- 96
2019-04-25 06:00:00 9.3 6 Sudoeste 12 Sudoeste 0.2 -- -- 95
2019-04-25 05:00:00 9.3 6 Sudoeste 12 Sudoeste 0.4 -- -- 94
2019-04-25 04:00:00 8.8 5 Sudoeste 11 Sur 1 -- -- 94
2019-04-25 03:00:00 8.8 8 Sur 22 Oeste 1 -- -- 91
2019-04-25 02:00:00 9.4 18 Oeste 26 Oeste 0 -- -- 86
2019-04-25 01:00:00 9.3 14 Sudoeste 21 Oeste 0 -- -- 81
2019-04-25 00:00:00 9.5 9 Sudoeste 15 Sudoeste 0 -- -- 76
2019-04-24 23:00:00 9.9 7 Oeste 15 Oeste 0 -- -- 71
2019-04-24 22:00:00 10.2 9 Oeste 17 Sudoeste 0 -- -- 69
2019-04-24 21:00:00 10.8 10 Oeste 25 Sudoeste 0 -- -- 63
2019-04-24 20:00:00 11.8 12 Sudoeste 24 Oeste 0 -- -- 59
2019-04-24 19:00:00 13.5 17 Oeste 36 Sudoeste 0 -- -- 55
2019-04-24 18:00:00 13.5 17 Oeste 26 Oeste 0 -- -- 53
2019-04-24 17:00:00 14.2 19 Oeste 44 Oeste 0 -- -- 51
2019-04-24 16:00:00 13.4 28 Oeste 50 Oeste 0 -- -- 49
2019-04-24 15:00:00 13.8 32 Oeste 53 Oeste 0 -- -- 44
2019-04-24 14:00:00 12.7 25 Oeste 45 Oeste 0 -- -- 53
2019-04-24 13:00:00 12.3 22 Sudoeste 42 Oeste 0 -- -- 58
2019-04-24 12:00:00 11.9 26 Sudoeste 37 Oeste 0 -- -- 58
2019-04-24 11:00:00 11.2 21 Oeste 32 Sudoeste 0 -- -- 65
2019-04-24 10:00:00 10 5 Sudeste 10 Este 0 -- -- 77
2019-04-24 09:00:00 7.5 4 Sudeste 10 Este 0 -- -- 87
2019-04-24 08:00:00 6.9 3 Este 10 Sudeste 0 -- -- 89
2019-04-24 07:00:00 6.3 5 Este 9 Nordeste 0 -- -- 91
2019-04-24 06:00:00 6.6 4 Este 18 Nordeste 0 -- -- 90
2019-04-24 05:00:00 7.9 4 Este 32 Oeste 0.2 -- -- 83
2019-04-24 04:00:00 9 19 Oeste 33 Sudoeste 0 -- -- 86
2019-04-24 03:00:00 10 8 Sudoeste 14 Sudoeste 0 -- -- 92
2019-04-24 02:00:00 10.1 4 Sudoeste 8 Oeste 0 -- -- 92
2019-04-24 01:00:00 10.7 2 Este 8 Sudoeste 0 -- -- 89
2019-04-24 00:00:00 11.2 3 Sur 10 Sudoeste 0 -- -- 85
2019-04-23 23:00:00 11.3 6 Sudoeste 12 Sudoeste 0 -- -- 86
2019-04-23 22:00:00 11.9 2 Sur 16 Oeste 0 -- -- 84
2019-04-23 21:00:00 11.8 6 Sudoeste 15 Oeste 0 -- -- 86
2019-04-23 20:00:00 12.4 4 Este 11 Este 0 -- -- 85
2019-04-23 19:00:00 13.3 4 Nordeste 10 Sudoeste 0.2 -- -- 79
2019-04-23 18:00:00 14.6 9 Sudoeste 35 Noroeste 0 -- -- 69
2019-04-23 17:00:00 11.1 18 Noroeste 42 Oeste 3.8 -- -- 80
2019-04-23 16:00:00 16 10 Sudoeste 21 Sudoeste 0 -- -- 77
2019-04-23 15:00:00 13.9 11 Sudoeste 20 Sudoeste 1 -- -- 84
2019-04-23 14:00:00 15.4 8 Sur 21 Sudoeste 0 -- -- 71
2019-04-23 13:00:00 14.4 12 Oeste 22 Oeste 0 -- -- 72
2019-04-23 12:00:00 15.8 10 Sudoeste 18 Sudoeste 0 -- -- 68
2019-04-23 11:00:00 14.7 10 Sudoeste 16 Oeste 0 -- -- 72
2019-04-23 10:00:00 12.8 7 Sudoeste 12 Sudoeste 0 -- -- 80
2019-04-23 09:00:00 11.2 3 Nordeste 9 Nordeste 0 -- -- 85
2019-04-23 08:00:00 9.6 4 Este 10 Nordeste 0.2 -- -- 89
2019-04-23 07:00:00 10.5 4 Este 6 Este 0 -- -- 76
2019-04-23 06:00:00 10.7 5 Este 7 Este 0 -- -- 73
2019-04-23 05:00:00 11 4 Nordeste 8 Nordeste 0 -- -- 71
2019-04-23 04:00:00 11.1 3 Nordeste 12 Sudeste 0 -- -- 71
2019-04-23 03:00:00 11 4 Sudoeste 15 Nordeste 0 -- -- 74
2019-04-23 02:00:00 11.1 4 Nordeste 13 Este 0 -- -- 76
2019-04-23 01:00:00 11.7 8 Nordeste 15 Este 0 -- -- 66
2019-04-23 00:00:00 11.8 3 Nordeste 8 Noroeste 0 -- -- 67
2019-04-22 23:00:00 12.1 5 Noroeste 14 Este 0 -- -- 64
2019-04-22 22:00:00 12.3 6 Sudeste 16 Sudeste 0 -- -- 60
2019-04-22 21:00:00 12.9 4 Nordeste 30 Nordeste 0 -- -- 57
2019-04-22 20:00:00 13.2 9 Este 32 Sudeste 0 -- -- 54
2019-04-22 19:00:00 14.2 11 Este 30 Sudeste 0 -- -- 55
2019-04-22 18:00:00 14.1 8 Este 29 Sudeste 0 -- -- 53
2019-04-22 17:00:00 14.4 10 Este 36 Este 0 -- -- 52
2019-04-22 16:00:00 14.1 20 Este 61 Nordeste 0 -- -- 53
2019-04-22 15:00:00 15.7 13 Este 36 Este 0 -- -- 49
2019-04-22 14:00:00 14.5 15 Este 51 Nordeste 0 -- -- 54
2019-04-22 13:00:00 13.8 16 Este 42 Este 0 -- -- 58
2019-04-22 12:00:00 15.4 14 Este 36 Este 0 -- -- 51
2019-04-22 11:00:00 13.3 14 Nordeste 44 Este 0 -- -- 54
2019-04-22 10:00:00 11.9 22 Este 48 Este 0 -- -- 56
2019-04-22 09:00:00 12.7 11 Este 40 Este 0 -- -- 47
2019-04-22 08:00:00 12.4 6 Este 40 Nordeste 0 -- -- 48
2019-04-22 07:00:00 12.6 12 Este 31 Nordeste 0 -- -- 48
2019-04-22 06:00:00 12.3 10 Nordeste 30 Nordeste 0 -- -- 52
2019-04-22 05:00:00 12.3 12 Nordeste 27 Nordeste 0 -- -- 49
2019-04-22 04:00:00 12 13 Nordeste 26 Nordeste 0 -- -- 50
2019-04-22 03:00:00 10.5 3 Este 12 Este 0 -- -- 56
2019-04-22 02:00:00 11.4 5 Este 17 Nordeste 0 -- -- 51
2019-04-22 01:00:00 12.4 11 Nordeste 37 Nordeste 0 -- -- 46
2019-04-22 00:00:00 11.7 6 Este 17 Nordeste 0 -- -- 53
2019-04-21 23:00:00 11.9 8 Nordeste 35 Este 0 -- -- 54
2019-04-21 22:00:00 12.2 13 Nordeste 34 Nordeste 0 -- -- 51
2019-04-21 21:00:00 12.4 6 Este 24 Este 0 -- -- 53
2019-04-21 20:00:00 12.9 6 Nordeste 18 Este 0 -- -- 53
2019-04-21 19:00:00 12.9 10 Este 26 Sudeste 0 -- -- 54
2019-04-21 18:00:00 13.2 13 Este 33 Este 0 -- -- 54
2019-04-21 17:00:00 13.9 15 Este 39 Nordeste 0 -- -- 51
2019-04-21 16:00:00 13.9 17 Este 40 Este 0 -- -- 49
2019-04-21 15:00:00 12.7 19 Nordeste 51 Nordeste 0 -- -- 51
2019-04-21 14:00:00 12.4 20 Nordeste 44 Este 0 -- -- 50
2019-04-21 13:00:00 11.9 14 Este 39 Nordeste 0 -- -- 56
2019-04-21 12:00:00 11.5 12 Este 41 Este 0 -- -- 59
2019-04-21 11:00:00 13 14 Este 36 Nordeste 0 -- -- 50
2019-04-21 10:00:00 11.5 16 Nordeste 39 Nordeste 0 -- -- 54
2019-04-21 09:00:00 10.6 16 Nordeste 40 Nordeste 0 -- -- 59
2019-04-21 08:00:00 10.8 15 Este 33 Nordeste 0 -- -- 60
2019-04-21 07:00:00 10.4 14 Nordeste 31 Nordeste 0 -- -- 66
2019-04-21 06:00:00 10.5 19 Nordeste 30 Nordeste 0 -- -- 64
2019-04-21 05:00:00 9.9 8 Este 23 Nordeste 0 -- -- 73
2019-04-21 04:00:00 9.9 17 Nordeste 39 Nordeste 0 -- -- 69
2019-04-21 03:00:00 9.8 21 Nordeste 41 Nordeste 0 -- -- 68
2019-04-21 02:00:00 7.9 18 Este 38 Nordeste 0.6 -- -- 80
2019-04-21 01:00:00 8.5 19 Nordeste 44 Nordeste 1 -- -- 76
2019-04-21 00:00:00 7.4 12 Nordeste 28 Nordeste 2.2 -- -- 84
2019-04-20 23:00:00 7.8 10 Nordeste 25 Nordeste 6 -- -- 82
2019-04-20 22:00:00 9 9 Este 34 Sudeste 2.4 -- -- 78
2019-04-20 21:00:00 12.9 8 Este 44 Nordeste 0 -- -- 47
2019-04-20 20:00:00 13.2 5 Este 42 Este 0 -- -- 47
2019-04-20 19:00:00 13.6 13 Este 33 Este 0 -- -- 50
2019-04-20 18:00:00 14.7 9 Este 33 Este 0 -- -- 44
2019-04-20 17:00:00 15.3 13 Este 37 Sudeste 0 -- -- 44
2019-04-20 16:00:00 15.6 11 Este 28 Este 0 -- -- 42
2019-04-20 15:00:00 16.1 12 Este 37 Este 0 -- -- 42
2019-04-20 14:00:00 16.5 16 Este 42 Sudeste 0 -- -- 41
2019-04-20 13:00:00 16.7 12 Este 33 Este 0 -- -- 39
2019-04-20 12:00:00 17.3 13 Este 44 Este 0 -- -- 38
2019-04-20 11:00:00 16.6 14 Este 34 Este 0 -- -- 37
2019-04-20 10:00:00 13.6 15 Nordeste 27 Nordeste 0 -- -- 46
2019-04-20 09:00:00 11.2 7 Este 28 Nordeste 0 -- -- 50
2019-04-20 08:00:00 11.7 17 Nordeste 30 Este 0 -- -- 43
2019-04-20 07:00:00 11.1 13 Nordeste 23 Nordeste 0 -- -- 46
2019-04-20 06:00:00 10.5 7 Nordeste 23 Nordeste 0 -- -- 47
2019-04-20 05:00:00 10.6 7 Este 30 Nordeste 0 -- -- 46
2019-04-20 04:00:00 12.2 15 Nordeste 28 Nordeste 0 -- -- 39
2019-04-20 03:00:00 11.2 10 Nordeste 20 Nordeste 0 -- -- 44
2019-04-20 02:00:00 12.2 13 Este 30 Nordeste 0 -- -- 41
2019-04-20 01:00:00 12.4 6 Este 30 Nordeste 0 -- -- 41
2019-04-20 00:00:00 13.9 11 Nordeste 30 Nordeste 0 -- -- 36
2019-04-19 23:00:00 14.7 13 Este 32 Nordeste 0 -- -- 34
2019-04-19 22:00:00 14.4 9 Este 28 Este 0 -- -- 35
2019-04-19 21:00:00 14.8 5 Este 21 Nordeste 0 -- -- 40
2019-04-19 20:00:00 16.1 8 Este 28 Este 0 -- -- 36
2019-04-19 19:00:00 16.9 10 Este 40 Sudeste 0 -- -- 36
2019-04-19 18:00:00 17.4 18 Este 42 Este 0 -- -- 33
2019-04-19 17:00:00 18.3 14 Este 45 Sudeste 0 -- -- 32
2019-04-19 16:00:00 18.9 16 Este 39 Este 0 -- -- 34
2019-04-19 15:00:00 19 11 Este 48 Nordeste 0 -- -- 32
2019-04-19 14:00:00 17.5 14 Este 47 Este 0 -- -- 33
2019-04-19 13:00:00 16.8 13 Este 43 Este 0 -- -- 36
2019-04-19 12:00:00 16.4 12 Este 34 Nordeste 0 -- -- 38
2019-04-19 11:00:00 15.3 12 Este 36 Este 0 -- -- 39
2019-04-19 10:00:00 14.7 17 Nordeste 39 Nordeste 0 -- -- 39
2019-04-19 09:00:00 14.5 14 Nordeste 37 Nordeste 0 -- -- 38
2019-04-19 08:00:00 13.9 14 Nordeste 31 Este 0 -- -- 39
2019-04-19 07:00:00 14.2 18 Nordeste 50 Nordeste 0 -- -- 36
2019-04-19 06:00:00 13.8 19 Nordeste 39 Nordeste 0 -- -- 40
2019-04-19 05:00:00 13.3 15 Nordeste 37 Nordeste 0 -- -- 44
2019-04-19 04:00:00 12.9 17 Nordeste 37 Este 0 -- -- 48
2019-04-19 03:00:00 12.6 18 Nordeste 35 Nordeste 0 -- -- 51
2019-04-19 02:00:00 12.3 17 Nordeste 37 Nordeste 0 -- -- 52
2019-04-19 01:00:00 12.4 17 Nordeste 38 Este 0 -- -- 49
2019-04-19 00:00:00 12.6 12 Nordeste 36 Nordeste 0 -- -- 48
2019-04-18 23:00:00 13.1 22 Nordeste 36 Nordeste 0 -- -- 46
2019-04-18 22:00:00 13.3 10 Nordeste 32 Este 0 -- -- 42
2019-04-18 21:00:00 13.6 13 Nordeste 26 Nordeste 0 -- -- 45
2019-04-18 20:00:00 14.1 10 Este 27 Este 0 -- -- 47
2019-04-18 19:00:00 14.7 9 Este 31 Este 0 -- -- 46
2019-04-18 18:00:00 16.3 9 Este 26 Sudeste 0 -- -- 44
2019-04-18 17:00:00 17.3 9 Este 30 Nordeste 0 -- -- 44
2019-04-18 16:00:00 17.3 17 Nordeste 33 Nordeste 0 -- -- 42
2019-04-18 15:00:00 17.1 9 Este 22 Este 0 -- -- 46
2019-04-18 14:00:00 16.5 5 Este 19 Nordeste 0 -- -- 50
2019-04-18 13:00:00 15.6 9 Este 26 Este 0 -- -- 51
2019-04-18 12:00:00 15.2 6 Nordeste 16 Este 0 -- -- 56
2019-04-18 11:00:00 14.4 4 Este 11 Sudeste 0 -- -- 59
2019-04-18 10:00:00 12.6 6 Este 12 Este 0 -- -- 69
2019-04-18 09:00:00 10.5 4 Este 12 Este 0 -- -- 80
2019-04-18 08:00:00 10.5 5 Nordeste 27 Este 0 -- -- 79
2019-04-18 07:00:00 9.8 6 Este 18 Nordeste 0 -- -- 83
2019-04-18 06:00:00 8.9 5 Este 12 Este 0 -- -- 88
2019-04-18 05:00:00 9.3 5 Este 10 Este 0 -- -- 86
2019-04-18 04:00:00 9.5 5 Este 10 Nordeste 0 -- -- 86
2019-04-18 03:00:00 9.6 4 Este 9 Este 0 -- -- 86
2019-04-18 02:00:00 9.7 5 Este 9 Este 0 -- -- 85
2019-04-18 01:00:00 10 3 Este 7 Este 0 -- -- 85
2019-04-18 00:00:00 11 3 Este 5 Este 0 -- -- 79
2019-04-17 23:00:00 11.4 3 Sudoeste 8 Sudoeste 0 -- -- 79
2019-04-17 22:00:00 12.1 5 Sudoeste 9 Sudoeste 0 -- -- 77
2019-04-17 21:00:00 13.2 5 Sudoeste 14 Sudoeste 0 -- -- 71
2019-04-17 20:00:00 14.5 9 Sudoeste 17 Sudoeste 0 -- -- 65
2019-04-17 19:00:00 15.8 10 Sudoeste 26 Sudoeste 0 -- -- 61
2019-04-17 18:00:00 17.4 15 Sudoeste 25 Sudoeste 0 -- -- 57
2019-04-17 17:00:00 17.8 11 Sudoeste 20 Sudoeste 0 -- -- 55
2019-04-17 16:00:00 17.9 9 Sudoeste 22 Sudoeste 0 -- -- 54
2019-04-17 15:00:00 17.1 10 Sudoeste 23 Sudoeste 0 -- -- 55
2019-04-17 14:00:00 17 16 Sudoeste 31 Sudoeste 0 -- -- 54
2019-04-17 13:00:00 16.6 16 Sudoeste 28 Sudoeste 0 -- -- 57
2019-04-17 12:00:00 15.7 10 Sudoeste 21 Sudoeste 0 -- -- 62
2019-04-17 11:00:00 13.8 5 Sudoeste 11 Sudoeste 0 -- -- 68
2019-04-17 10:00:00 11.3 3 Sur 11 Oeste 0 -- -- 79
2019-04-17 09:00:00 9 4 Sudeste 7 Este 0 -- -- 85
2019-04-17 08:00:00 7.8 2 Nordeste 5 Este 0 -- -- 92
2019-04-17 07:00:00 8 2 Sudoeste 6 Sudoeste 0 -- -- 92
2019-04-17 06:00:00 8.3 4 Sur 7 Sur 0 -- -- 92
2019-04-17 05:00:00 8.8 2 Sudoeste 8 Sur 0 -- -- 92
2019-04-17 04:00:00 9 3 Sudoeste 6 Sudoeste 0 -- -- 91
2019-04-17 03:00:00 9 2 Sur 9 Sur 0 -- -- 92
2019-04-17 02:00:00 9.4 2 Sudeste 8 Nordeste 0 -- -- 88
2019-04-17 01:00:00 10 4 Sudoeste 7 Oeste 0 -- -- 88
2019-04-17 00:00:00 10.2 6 Sudoeste 12 Sudoeste 0 -- -- 86
2019-04-16 23:00:00 10.9 4 Sudoeste 12 Sudoeste 0 -- -- 81
2019-04-16 22:00:00 11.6 9 Oeste 15 Sudoeste 0 -- -- 76
2019-04-16 21:00:00 12.5 9 Sudoeste 18 Sudoeste 0 -- -- 71
2019-04-16 20:00:00 13.5 10 Oeste 18 Sudoeste 0 -- -- 68
2019-04-16 19:00:00 14.4 10 Oeste 18 Sudoeste 0 -- -- 59
2019-04-16 18:00:00 15.3 10 Sudoeste 18 Sudoeste 0 -- -- 52
2019-04-16 17:00:00 16.1 6 Sudoeste 18 Oeste 0 -- -- 52
2019-04-16 16:00:00 15.8 5 Oeste 12 Sudoeste 0 -- -- 51
2019-04-16 15:00:00 14.2 5 Sur 12 Oeste 0 -- -- 51
2019-04-16 14:00:00 13.1 4 Oeste 8 Oeste 0 -- -- 65
2019-04-16 13:00:00 11.3 3 Nordeste 8 Sudoeste 0 -- -- 67
2019-04-16 12:00:00 10.5 6 Sur 11 Sudoeste 0 -- -- 69
2019-04-16 11:00:00 10.2 5 Sudoeste 10 Sudoeste 0 -- -- 81
2019-04-16 10:00:00 9.1 3 Este 6 Sudoeste 0 -- -- 87
2019-04-16 09:00:00 7.8 3 Oeste 12 Sudoeste 0 -- -- 89
2019-04-16 08:00:00 8.6 11 Nordeste 18 Nordeste 0 -- -- 82
2019-04-16 07:00:00 8 6 Este 13 Este 0 -- -- 86
2019-04-16 06:00:00 7.3 10 Este 21 Este 0 -- -- 85
2019-04-16 05:00:00 6.5 10 Este 16 Nordeste 0 -- -- 90
2019-04-16 04:00:00 6.3 6 Este 15 Noroeste 0 -- -- 89
2019-04-16 03:00:00 7.1 8 Sudoeste 30 Nordeste 0.2 -- -- 85
2019-04-16 02:00:00 7.4 8 Nordeste 17 Sudeste 1 -- -- 85
2019-04-16 01:00:00 8.3 7 Sudoeste 11 Oeste 0 -- -- 78
2019-04-16 00:00:00 9.1 2 Este 10 Sur 0 -- -- 66
2019-04-15 23:00:00 9.6 5 Sudoeste 7 Sudoeste 0 -- -- 62
2019-04-15 22:00:00 10.5 0 Calma 6 Este 0 -- -- 60
2019-04-15 21:00:00 10.9 6 Sudoeste 14 Sudoeste 0 -- -- 60
2019-04-15 20:00:00 11.9 9 Sudoeste 15 Sudoeste 0 -- -- 60
2019-04-15 19:00:00 13.5 12 Sudoeste 22 Oeste 0 -- -- 61
2019-04-15 18:00:00 14 13 Sudoeste 22 Sudoeste 0 -- -- 61
2019-04-15 17:00:00 15.3 11 Sudoeste 19 Sudoeste 0 -- -- 57
2019-04-15 16:00:00 15.6 10 Sudoeste 20 Sudoeste 0 -- -- 55
2019-04-15 15:00:00 15 9 Sudoeste 23 Sudoeste 0 -- -- 57
2019-04-15 14:00:00 14.7 9 Sudoeste 24 Sudoeste 0 -- -- 57
2019-04-15 13:00:00 14.2 9 Sudoeste 20 Oeste 0 -- -- 59
2019-04-15 12:00:00 12.8 7 Sudoeste 17 Sudoeste 0 -- -- 64
2019-04-15 11:00:00 11.8 6 Oeste 14 Sudoeste 0 -- -- 69
2019-04-15 10:00:00 10.2 4 Sudoeste 10 Sudoeste 0 -- -- 70
2019-04-15 09:00:00 7.9 3 Sudoeste 11 Este 0 -- -- 83
2019-04-15 08:00:00 6.3 6 Este 13 Este 0 -- -- 87
2019-04-15 07:00:00 5.7 8 Este 13 Nordeste 0 -- -- 89
2019-04-15 06:00:00 6.5 8 Este 13 Este 0 -- -- 87
2019-04-15 05:00:00 6.6 7 Este 13 Este 0 -- -- 86
2019-04-15 04:00:00 6.9 6 Este 9 Este 0 -- -- 86
2019-04-15 03:00:00 7.5 5 Este 9 Este 0 -- -- 84
2019-04-15 02:00:00 8.5 4 Este 8 Nordeste 0 -- -- 80
2019-04-15 01:00:00 9.2 3 Este 9 Este 0 -- -- 78
2019-04-15 00:00:00 10.1 0 Calma 9 Este 0 -- -- 73
2019-04-14 23:00:00 11.2 2 Sudoeste 8 Sudoeste 0 -- -- 68
2019-04-14 22:00:00 12.2 5 Sudoeste 9 Oeste 0 -- -- 70
2019-04-14 21:00:00 13.4 7 Oeste 11 Sudoeste 0 -- -- 67
2019-04-14 20:00:00 15.6 8 Sudoeste 19 Oeste 0 -- -- 59
2019-04-14 19:00:00 17.5 8 Sudoeste 17 Sudoeste 0 -- -- 51
2019-04-14 18:00:00 18.9 8 Sudeste 24 Sudoeste 0 -- -- 43
2019-04-14 17:00:00 19 15 Oeste 30 Sudoeste 0 -- -- 36
2019-04-14 16:00:00 20.1 15 Sudoeste 33 Sudoeste 0 -- -- 31
2019-04-14 15:00:00 19.3 20 Sudoeste 31 Sudoeste 0 -- -- 31
2019-04-14 14:00:00 18.2 10 Sudoeste 22 Sudoeste 0 -- -- 39
2019-04-14 13:00:00 16.8 8 Sudoeste 21 Sudoeste 0 -- -- 41
2019-04-14 12:00:00 15.4 12 Sudoeste 19 Sudoeste 0 -- -- 41
2019-04-14 11:00:00 14.3 7 Sudoeste 12 Sudoeste 0 -- -- 47
2019-04-14 10:00:00 9.9 5 Este 11 Este 0 -- -- 49
2019-04-14 09:00:00 6.6 6 Este 13 Este 0 -- -- 55
2019-04-14 08:00:00 5.9 9 Este 18 Este 0 -- -- 52
2019-04-14 07:00:00 5.6 9 Este 16 Sudeste 0 -- -- 51
2019-04-14 06:00:00 5.8 10 Este 17 Este 0 -- -- 51
2019-04-14 05:00:00 6 9 Este 17 Este 0 -- -- 48
2019-04-14 04:00:00 6.6 9 Este 16 Este 0 -- -- 44
2019-04-14 03:00:00 7 6 Este 13 Este 0 -- -- 44
2019-04-14 02:00:00 8.2 6 Este 16 Nordeste 0 -- -- 41
2019-04-14 01:00:00 8 8 Este 14 Este 0 -- -- 45
2019-04-14 00:00:00 9.4 6 Este 9 Este 0 -- -- 48
2019-04-13 23:00:00 11.2 3 Nordeste 5 Este 0 -- -- 46
2019-04-13 22:00:00 12.4 4 Este 9 Este 0 -- -- 45
2019-04-13 21:00:00 14.5 5 Este 24 Noroeste 0 -- -- 39
2019-04-13 20:00:00 16.6 7 Noroeste 25 Oeste 0 -- -- 34
2019-04-13 19:00:00 17.7 19 Oeste 31 Oeste 0 -- -- 34
2019-04-13 18:00:00 18.6 17 Oeste 29 Oeste 0 -- -- 34
2019-04-13 17:00:00 19.1 19 Sudoeste 28 Sudoeste 0 -- -- 30
2019-04-13 16:00:00 18.8 17 Oeste 29 Sudoeste 0 -- -- 32
2019-04-13 15:00:00 18.8 17 Oeste 28 Sudoeste 0 -- -- 28
2019-04-13 14:00:00 17.5 14 Oeste 23 Sudoeste 0 -- -- 29
2019-04-13 13:00:00 15.5 10 Oeste 20 Sudoeste 0 -- -- 46
2019-04-13 12:00:00 13.3 8 Sudoeste 14 Sudoeste 0 -- -- 45
2019-04-13 11:00:00 11.2 7 Sudoeste 13 Oeste 0 -- -- 49
2019-04-13 10:00:00 9 7 Sudoeste 10 Oeste 0 -- -- 51
2019-04-13 09:00:00 5.2 3 Sur 11 Este 0 -- -- 54
2019-04-13 08:00:00 2.1 3 Nordeste 14 Este 0 -- -- 54
2019-04-13 07:00:00 1.7 9 Este 14 Este 0 -- -- 60
2019-04-13 06:00:00 3.4 5 Este 10 Este 0 -- -- 50
2019-04-13 05:00:00 4.5 6 Nordeste 12 Este 0 -- -- 47
2019-04-13 04:00:00 5.1 6 Este 15 Este 0 -- -- 45
2019-04-13 03:00:00 4 8 Este 13 Este 0 -- -- 73
2019-04-13 02:00:00 5.5 5 Este 8 Este 0 -- -- 73
2019-04-13 01:00:00 6.1 5 Este 12 Nordeste 0 -- -- 66
2019-04-13 00:00:00 7.9 3 Sudoeste 14 Nordeste 0 -- -- 75
2019-04-12 23:00:00 8.8 4 Este 12 Este 0 -- -- 70
2019-04-12 22:00:00 10.5 4 Sudoeste 9 Sudoeste 0 -- -- 72
2019-04-12 21:00:00 11.9 6 Sudoeste 17 Sudoeste 0 -- -- 65
2019-04-12 20:00:00 14.5 4 Sur 22 Sudeste 0 -- -- 53
2019-04-12 19:00:00 17.5 4 Nordeste 23 Nordeste 0 -- -- 16
2019-04-12 18:00:00 18.3 8 Nordeste 27 Nordeste 0 -- -- 14
2019-04-12 17:00:00 18.9 6 Este 22 Nordeste 0 -- -- 13
2019-04-12 16:00:00 18.8 9 Nordeste 32 Este 0 -- -- 14
2019-04-12 15:00:00 18.6 10 Este 29 Este 0 -- -- 15
2019-04-12 14:00:00 17.5 10 Nordeste 27 Nordeste 0 -- -- 16
2019-04-12 13:00:00 17 10 Nordeste 27 Este 0 -- -- 20
2019-04-12 12:00:00 15.4 11 Sudoeste 22 Sudoeste 0 -- -- 51
2019-04-12 11:00:00 12.3 12 Sudoeste 18 Sudoeste 0 -- -- 61
2019-04-12 10:00:00 10 9 Sudoeste 15 Sudoeste 0 -- -- 67
2019-04-12 09:00:00 6.4 5 Sudoeste 9 Oeste 0 -- -- 79
2019-04-12 08:00:00 5.8 4 Este 9 Oeste 0 -- -- 76
2019-04-12 07:00:00 7.3 3 Noroeste 17 Nordeste 0 -- -- 68
2019-04-12 06:00:00 10 9 Nordeste 20 Nordeste 0 -- -- 46
2019-04-12 05:00:00 9 3 Norte 9 Nordeste 0 -- -- 55
2019-04-12 04:00:00 8.7 2 Nordeste 8 Nordeste 0 -- -- 61
2019-04-12 03:00:00 10.4 5 Nordeste 18 Nordeste 0 -- -- 52
2019-04-12 02:00:00 9.9 10 Nordeste 18 Nordeste 0 -- -- 52
2019-04-12 01:00:00 9.9 4 Este 15 Nordeste 0 -- -- 53
2019-04-12 00:00:00 9.9 4 Nordeste 18 Nordeste 0 -- -- 53
2019-04-11 23:00:00 10.6 6 Nordeste 17 Este 0 -- -- 49
2019-04-11 22:00:00 11.3 10 Nordeste 21 Nordeste 0 -- -- 47
2019-04-11 21:00:00 12.5 7 Nordeste 24 Este 0 -- -- 43
2019-04-11 20:00:00 13.7 11 Nordeste 22 Nordeste 0 -- -- 39
2019-04-11 19:00:00 14.4 6 Nordeste 22 Nordeste 0 -- -- 37
2019-04-11 18:00:00 15.2 7 Nordeste 17 Nordeste 0 -- -- 36
2019-04-11 17:00:00 14.5 10 Oeste 23 Oeste 0 -- -- 42
2019-04-11 16:00:00 15.5 13 Oeste 21 Oeste 0 -- -- 39
2019-04-11 15:00:00 16 12 Oeste 26 Oeste 0 -- -- 39
2019-04-11 14:00:00 14.8 5 Nordeste 20 Este 0 -- -- 33
2019-04-11 13:00:00 13.1 9 Este 32 Nordeste 0 -- -- 34
2019-04-11 12:00:00 14 16 Nordeste 46 Nordeste 0 -- -- 31
2019-04-11 11:00:00 13.2 14 Nordeste 35 Nordeste 0 -- -- 30
2019-04-11 10:00:00 10.1 6 Oeste 17 Sudoeste 0 -- -- 61
2019-04-11 09:00:00 9.6 4 Sudoeste 25 Nordeste 0 -- -- 52
2019-04-11 08:00:00 8.5 9 Norte 22 Nordeste 0 -- -- 43
2019-04-11 07:00:00 8.1 11 Nordeste 24 Este 0 -- -- 51
2019-04-11 06:00:00 6.9 9 Nordeste 15 Nordeste 0 -- -- 58
2019-04-11 05:00:00 7.8 3 Nordeste 20 Nordeste 0 -- -- 56
2019-04-11 04:00:00 8.4 13 Nordeste 23 Este 0 -- -- 56
2019-04-11 03:00:00 8.7 12 Nordeste 27 Nordeste 0 -- -- 57
2019-04-11 02:00:00 8.9 14 Nordeste 25 Nordeste 0 -- -- 55
2019-04-11 01:00:00 8.5 9 Nordeste 21 Nordeste 0 -- -- 57
2019-04-11 00:00:00 8.9 13 Nordeste 21 Nordeste 0 -- -- 53
2019-04-10 23:00:00 8.7 5 Nordeste 18 Nordeste 0 -- -- 67
2019-04-10 22:00:00 8.1 3 Oeste 7 Nordeste 0 -- -- 80
2019-04-10 21:00:00 8.8 3 Este 9 Sudoeste 0 -- -- 77
2019-04-10 20:00:00 9.9 6 Sudoeste 29 Sudoeste 0 -- -- 72
2019-04-10 19:00:00 13.1 6 Sudoeste 15 Sudoeste 0 -- -- 56
2019-04-10 18:00:00 13.7 5 Sudoeste 17 Oeste 0 -- -- 48
2019-04-10 17:00:00 14.5 13 Sudoeste 23 Sudoeste 0 -- -- 49
2019-04-10 16:00:00 14.7 11 Oeste 25 Oeste 0 -- -- 53
2019-04-10 15:00:00 13.6 17 Oeste 28 Oeste 0 -- -- 52
2019-04-10 14:00:00 12.4 3 Sur 16 Sudoeste 0 -- -- 58
2019-04-10 13:00:00 11.4 13 Sudoeste 21 Sudoeste 0 -- -- 63
2019-04-10 12:00:00 11.7 7 Sudoeste 16 Sudoeste 0 -- -- 73
2019-04-10 11:00:00 9.8 6 Oeste 12 Sudoeste 0 -- -- 73
2019-04-10 10:00:00 7.7 7 Sudoeste 10 Sudoeste 0 -- -- 82
2019-04-10 09:00:00 3.9 7 Este 11 Este 0 -- -- 93
2019-04-10 08:00:00 1.8 7 Este 12 Este 0 -- -- 93
2019-04-10 07:00:00 1.6 8 Este 13 Este 0 -- -- 93
2019-04-10 06:00:00 2.7 0 Calma 10 Norte 0 -- -- 88
2019-04-10 05:00:00 2.6 7 Este 13 Este 0 -- -- 92
2019-04-10 04:00:00 3.4 5 Este 24 Nordeste 0 -- -- 89
2019-04-10 03:00:00 3.2 12 Nordeste 19 Nordeste 0 -- -- 95
2019-04-10 02:00:00 3.6 5 Este 14 Este 0 -- -- 93
2019-04-10 01:00:00 4.1 8 Este 16 Este 0 -- -- 93
2019-04-10 00:00:00 4.7 6 Este 11 Nordeste 0 -- -- 93
2019-04-09 23:00:00 5.7 3 Este 7 Este 0 -- -- 93
2019-04-09 22:00:00 6.5 4 Oeste 8 Este 0 -- -- 89
2019-04-09 21:00:00 8 0 Calma 15 Nordeste 0 -- -- 82
2019-04-09 20:00:00 8.2 8 Nordeste 15 Nordeste 0 -- -- 82
2019-04-09 19:00:00 8.3 4 Nordeste 15 Nordeste 0 -- -- 87
2019-04-09 18:00:00 7.4 4 Nordeste 12 Este 0 -- -- 89
2019-04-09 17:00:00 7 7 Sur 21 Sudoeste 0.6 -- -- 85
2019-04-09 16:00:00 8.3 7 Oeste 14 Noroeste 1.4 -- -- 81
2019-04-09 15:00:00 9.6 12 Oeste 19 Sudoeste 0 -- -- 73
2019-04-09 14:00:00 9.9 8 Noroeste 18 Oeste 0.2 -- -- 73
2019-04-09 13:00:00 10.8 12 Oeste 17 Oeste 0 -- -- 76
2019-04-09 12:00:00 11.3 8 Oeste 13 Sudoeste 0 -- -- 74
2019-04-09 11:00:00 9.4 7 Sudoeste 13 Sudoeste 0 -- -- 82
2019-04-09 10:00:00 9.5 4 Este 10 Este 0 -- -- 77
2019-04-09 09:00:00 7.8 3 Este 9 Sudoeste 0 -- -- 89
2019-04-09 08:00:00 6.5 3 Sudoeste 8 Este 0 -- -- 86
2019-04-09 07:00:00 7.3 2 Este 29 Nordeste 0 -- -- 81
2019-04-09 06:00:00 7.8 16 Nordeste 35 Este 1.4 -- -- 82
2019-04-09 05:00:00 7.9 12 Oeste 21 Oeste 1.8 -- -- 88
2019-04-09 04:00:00 8.5 5 Este 13 Nordeste 0 -- -- 86
2019-04-09 03:00:00 8.5 5 Nordeste 9 Nordeste 0 -- -- 85
2019-04-09 02:00:00 9.4 6 Nordeste 9 Este 0 -- -- 82
2019-04-09 01:00:00 9.5 4 Este 10 Este 0 -- -- 81
2019-04-09 00:00:00 9.3 4 Este 10 Este 0 -- -- 81
2019-04-08 23:00:00 9.3 5 Este 10 Este 0 -- -- 79
2019-04-08 22:00:00 10.2 5 Nordeste 10 Nordeste 0 -- -- 77
2019-04-08 21:00:00 10.7 5 Nordeste 14 Este 0 -- -- 76
2019-04-08 20:00:00 11.2 5 Nordeste 10 Nordeste 0 -- -- 78
2019-04-08 19:00:00 11.9 5 Este 11 Este 0.6 -- -- 80
2019-04-08 18:00:00 14.3 4 Este 12 Sur 0.6 -- -- 69
2019-04-08 17:00:00 15.2 7 Sudoeste 19 Sudoeste 0 -- -- 54
2019-04-08 16:00:00 16.1 12 Sudoeste 22 Sudoeste 0 -- -- 54
2019-04-08 15:00:00 15.1 10 Sudoeste 20 Sudoeste 0 -- -- 52
2019-04-08 14:00:00 15 9 Sudoeste 20 Sudoeste 0 -- -- 51
2019-04-08 13:00:00 13.8 5 Sudoeste 15 Sudoeste 0 -- -- 59
2019-04-08 12:00:00 11.5 7 Oeste 12 Sudoeste 0 -- -- 69
2019-04-08 11:00:00 9.2 8 Sudoeste 13 Sudoeste 0 -- -- 74
2019-04-08 10:00:00 6.9 3 Este 9 Sudeste 0 -- -- 82
2019-04-08 09:00:00 5.4 6 Este 11 Este 0 -- -- 87
2019-04-08 08:00:00 3.5 4 Este 9 Este 0 -- -- 93
2019-04-08 07:00:00 3.2 5 Este 8 Nordeste 0 -- -- 93
2019-04-08 06:00:00 3.4 4 Este 8 Este 0 -- -- 92
2019-04-08 05:00:00 3.8 4 Este 11 Este 0 -- -- 90
2019-04-08 04:00:00 3.7 6 Este 11 Este 0 -- -- 91
2019-04-08 03:00:00 3.4 6 Este 11 Este 0 -- -- 92
2019-04-08 02:00:00 3.9 5 Este 12 Este 0 -- -- 91
2019-04-08 01:00:00 4.5 3 Este 7 Este 0 -- -- 91
2019-04-08 00:00:00 5.1 2 Nordeste 9 Este 0 -- -- 90
2019-04-07 23:00:00 5.5 3 Este 6 Sudoeste 0 -- -- 88
2019-04-07 22:00:00 6.3 4 Este 8 Nordeste 0 -- -- 84
2019-04-07 21:00:00 7.5 5 Sudeste 10 Sudeste 0 -- -- 80
2019-04-07 20:00:00 8.4 6 Sudoeste 12 Sudoeste 0 -- -- 77
2019-04-07 19:00:00 8.9 7 Oeste 18 Sudoeste 0 -- -- 75
2019-04-07 18:00:00 9.7 8 Sudoeste 17 Sudoeste 0 -- -- 68
2019-04-07 17:00:00 10 8 Sur 21 Oeste 0 -- -- 61
2019-04-07 16:00:00 8.7 9 Sudoeste 26 Noroeste 0 -- -- 69
2019-04-07 15:00:00 11.2 9 Sudoeste 14 Sudoeste 0 -- -- 55
2019-04-07 14:00:00 10.6 10 Oeste 26 Oeste 0 -- -- 58
2019-04-07 13:00:00 12.5 11 Oeste 22 Oeste 0 -- -- 52
2019-04-07 12:00:00 10.3 8 Sudoeste 16 Sudoeste 0 -- -- 67
2019-04-07 11:00:00 9.2 8 Sudoeste 18 Sudoeste 0 -- -- 70
2019-04-07 10:00:00 6.6 5 Sudoeste 10 Sudoeste 0 -- -- 75
2019-04-07 09:00:00 3.5 4 Este 11 Este 0 -- -- 86
2019-04-07 08:00:00 1.4 5 Este 12 Este 0 -- -- 91
2019-04-07 07:00:00 1.6 7 Este 12 Este 0 -- -- 91
2019-04-07 06:00:00 2.7 3 Nordeste 13 Nordeste 0 -- -- 86
2019-04-07 05:00:00 2.7 7 Este 12 Este 0 -- -- 89
2019-04-07 04:00:00 3.3 5 Este 8 Nordeste 0 -- -- 86
2019-04-07 03:00:00 4.4 0 Calma 9 Sur 0 -- -- 82
2019-04-07 02:00:00 5.6 4 Este 18 Este 0 -- -- 75
2019-04-07 01:00:00 5.4 4 Este 9 Este 0 -- -- 79
2019-04-07 00:00:00 6.1 4 Nordeste 11 Este 0 -- -- 76
2019-04-06 23:00:00 6.5 4 Este 8 Este 0 -- -- 78
2019-04-06 22:00:00 7 4 Sudoeste 12 Sur 0 -- -- 72
2019-04-06 21:00:00 7.9 6 Sudoeste 10 Oeste 0 -- -- 66
2019-04-06 20:00:00 8.6 6 Oeste 17 Oeste 0 -- -- 63
2019-04-06 19:00:00 9.4 12 Oeste 23 Sudoeste 0 -- -- 60
2019-04-06 18:00:00 10.2 12 Oeste 28 Oeste 0 -- -- 58
2019-04-06 17:00:00 9.8 11 Oeste 33 Oeste 0 -- -- 62
2019-04-06 16:00:00 9.4 19 Oeste 36 Oeste 0 -- -- 60
2019-04-06 15:00:00 9.5 20 Oeste 44 Oeste 0 -- -- 65
2019-04-06 14:00:00 9.5 21 Oeste 51 Oeste 0 -- -- 64
2019-04-06 13:00:00 7.8 25 Oeste 48 Oeste 0 -- -- 67
2019-04-06 12:00:00 6.3 19 Oeste 27 Oeste 0 -- -- 82
2019-04-06 11:00:00 5.5 19 Sudoeste 28 Sudoeste 0 -- -- 89
2019-04-06 10:00:00 5.2 3 Nordeste 8 Nordeste 0 -- -- 96
2019-04-06 09:00:00 4 4 Este 9 Este 0 -- -- 96
2019-04-06 08:00:00 3.7 2 Este 9 Este 0 -- -- 96
2019-04-06 07:00:00 3.4 4 Este 10 Este 0 -- -- 95
2019-04-06 06:00:00 3.4 4 Este 12 Sudoeste 0 -- -- 94
2019-04-06 05:00:00 3.5 3 Este 13 Este 0.2 -- -- 94
2019-04-06 04:00:00 3.3 4 Este 12 Este 0.6 -- -- 94
2019-04-06 03:00:00 3.4 5 Este 14 Este 0.8 -- -- 94
2019-04-06 02:00:00 3.1 14 Este 21 Este 0.4 -- -- 92
2019-04-06 01:00:00 3.4 10 Nordeste 20 Este 6.8 -- -- 89
2019-04-06 00:00:00 6 8 Noroeste 15 Oeste 9 -- -- 90
2019-04-05 23:00:00 7.1 3 Este 15 Sudeste 3.8 -- -- 92
2019-04-05 22:00:00 7.7 2 Oeste 8 Este 0.6 -- -- 90
2019-04-05 21:00:00 8.2 2 Sur 9 Oeste 0.2 -- -- 87
2019-04-05 20:00:00 8.5 4 Este 6 Este 0 -- -- 86
2019-04-05 19:00:00 8.4 3 Este 9 Nordeste 0 -- -- 87
2019-04-05 18:00:00 8.3 6 Este 12 Este 0 -- -- 85
2019-04-05 17:00:00 8.3 4 Este 8 Este 0 -- -- 85
2019-04-05 16:00:00 8.5 3 Este 9 Sur 0 -- -- 86
2019-04-05 15:00:00 8.8 6 Sudoeste 10 Sudoeste 0 -- -- 81
2019-04-05 14:00:00 8.7 4 Este 15 Este 0 -- -- 78
2019-04-05 13:00:00 6.7 6 Este 12 Este 0.6 -- -- 91
2019-04-05 12:00:00 6.3 0 Calma 11 Sudoeste 0.2 -- -- 78
2019-04-05 11:00:00 7.3 6 Sur 12 Sur 0 -- -- 66
2019-04-05 10:00:00 6.8 4 Este 12 Nordeste 0 -- -- 58
2019-04-05 09:00:00 2.4 9 Este 14 Este 0 -- -- 79
2019-04-05 08:00:00 0.3 7 Este 15 Este 0 -- -- 82
2019-04-05 07:00:00 0.5 10 Este 17 Este 0 -- -- 82
2019-04-05 06:00:00 0.1 8 Este 12 Este 0 -- -- 86
2019-04-05 05:00:00 0.8 7 Este 13 Este 0 -- -- 80
2019-04-05 04:00:00 1.3 10 Este 16 Este 0 -- -- 79
2019-04-05 03:00:00 1.6 5 Este 12 Este 0 -- -- 79
2019-04-05 02:00:00 1.6 6 Este 10 Este 0 -- -- 79
2019-04-05 01:00:00 3.2 5 Este 19 Este 0 -- -- 71
2019-04-05 00:00:00 3.4 7 Este 11 Este 0 -- -- 69
2019-04-04 23:00:00 4.9 3 Este 9 Este 0 -- -- 60
2019-04-04 22:00:00 6.4 4 Este 14 Sudeste 0 -- -- 54
2019-04-04 21:00:00 7.6 9 Sudoeste 23 Sudoeste 0 -- -- 48
2019-04-04 20:00:00 8.6 14 Sudoeste 33 Oeste 0 -- -- 46
2019-04-04 19:00:00 9 18 Oeste 36 Oeste 0 -- -- 43
2019-04-04 18:00:00 10.7 22 Oeste 37 Oeste 0 -- -- 42
2019-04-04 17:00:00 11.5 22 Oeste 33 Oeste 0 -- -- 40
2019-04-04 16:00:00 11.6 20 Sudoeste 30 Sudoeste 0 -- -- 41
2019-04-04 15:00:00 11 19 Sudoeste 28 Sudoeste 0 -- -- 44
2019-04-04 14:00:00 10 15 Sudoeste 26 Sudoeste 0 -- -- 46
2019-04-04 13:00:00 9.7 6 Oeste 17 Sur 0 -- -- 55
2019-04-04 12:00:00 7.3 8 Sudoeste 17 Sudoeste 0 -- -- 67
2019-04-04 11:00:00 5.7 6 Noroeste 13 Sudoeste 0 -- -- 73
2019-04-04 10:00:00 4 7 Sudoeste 11 Sudoeste 0 -- -- 79
2019-04-04 09:00:00 1.3 4 Sudoeste 8 Este 0 -- -- 88
2019-04-04 08:00:00 -0.2 4 Sudoeste 6 Sudoeste 0 -- -- 88
2019-04-04 07:00:00 0.6 3 Sudoeste 8 Sudeste 0 -- -- 85
2019-04-04 06:00:00 1.1 4 Sudoeste 10 Este 0 -- -- 84
2019-04-04 05:00:00 1.5 3 Este 9 Este 0 -- -- 83
2019-04-04 04:00:00 1.9 2 Este 11 Este 0 -- -- 85
2019-04-04 03:00:00 2.4 5 Sudeste 12 Sudeste 0 -- -- 88
2019-04-04 02:00:00 3.5 5 Sudeste 9 Sudeste 0 -- -- 91
2019-04-04 01:00:00 3.6 6 Este 9 Este 0 -- -- 91
2019-04-04 00:00:00 3.9 4 Sudeste 12 Sudeste 0 -- -- 89
2019-04-03 23:00:00 5.2 13 Sudoeste 30 Oeste 0 -- -- 81
2019-04-03 22:00:00 5.7 14 Sudoeste 28 Oeste 0 -- -- 85
2019-04-03 21:00:00 6.1 19 Oeste 27 Oeste 0 -- -- 86
2019-04-03 20:00:00 7 10 Nordeste 30 Sudoeste 0.2 -- -- 80
2019-04-03 19:00:00 7.9 17 Sudoeste 26 Sudoeste 0 -- -- 80
2019-04-03 18:00:00 8.9 16 Sudoeste 31 Oeste 0 -- -- 77
2019-04-03 17:00:00 10.6 16 Oeste 29 Oeste 0 -- -- 66
2019-04-03 16:00:00 10.9 14 Sudoeste 28 Sudoeste 0 -- -- 69
2019-04-03 15:00:00 10.6 18 Sudoeste 34 Sudoeste 0 -- -- 73
2019-04-03 14:00:00 11 19 Sudoeste 29 Sudoeste 0 -- -- 72
2019-04-03 13:00:00 10.7 21 Oeste 30 Sudoeste 0 -- -- 73
2019-04-03 12:00:00 10.4 19 Sudoeste 34 Sudoeste 0 -- -- 79
2019-04-03 11:00:00 9.4 19 Oeste 30 Oeste 0 -- -- 93
2019-04-03 10:00:00 8.4 11 Sudoeste 23 Sudoeste 0 -- -- 96
2019-04-03 09:00:00 7.8 12 Sudoeste 17 Sudoeste 0 -- -- 96
2019-04-03 08:00:00 7.7 0 Calma 6 Este 0.2 -- -- 95
2019-04-03 07:00:00 8 3 Sudeste 6 Sudoeste 1 -- -- 94
2019-04-03 06:00:00 7.9 0 Calma 5 Este 0 -- -- 94
2019-04-03 05:00:00 7.9 0 Calma 7 Este 0 -- -- 94
2019-04-03 04:00:00 8 3 Este 6 Este 0 -- -- 93
2019-04-03 03:00:00 8.1 3 Este 9 Este 0 -- -- 93
2019-04-03 02:00:00 8.1 4 Este 10 Este 0 -- -- 92
2019-04-03 01:00:00 8.4 3 Este 6 Este 0 -- -- 91
2019-04-03 00:00:00 8.6 4 Este 9 Noroeste 0 -- -- 91
2019-04-02 23:00:00 8.4 3 Sur 15 Este 0 -- -- 92
2019-04-02 22:00:00 8.4 8 Nordeste 15 Este 0.8 -- -- 91
2019-04-02 21:00:00 8.9 6 Nordeste 20 Sudeste 8.6 -- -- 86
2019-04-02 20:00:00 10.6 6 Noroeste 36 Oeste 0.8 -- -- 75
2019-04-02 19:00:00 10.4 14 Oeste 43 Oeste 1.2 -- -- 78
2019-04-02 18:00:00 13 24 Oeste 41 Oeste 0 -- -- 54
2019-04-02 17:00:00 14 7 Este 33 Este 0 -- -- 58
2019-04-02 16:00:00 16.5 11 Nordeste 29 Sudoeste 0 -- -- 50
2019-04-02 15:00:00 15.7 9 Sur 27 Sudoeste 0 -- -- 54
2019-04-02 14:00:00 16.1 9 Sudoeste 21 Sudoeste 0 -- -- 52
2019-04-02 13:00:00 15.8 7 Oeste 15 Sudoeste 0 -- -- 52
2019-04-02 12:00:00 14.1 7 Oeste 12 Oeste 0 -- -- 57
2019-04-02 11:00:00 11.1 6 Oeste 13 Sudoeste 0 -- -- 65
2019-04-02 10:00:00 8.4 4 Este 9 Este 0 -- -- 75
2019-04-02 09:00:00 6.8 6 Este 11 Este 0 -- -- 83
2019-04-02 08:00:00 5.1 6 Este 10 Nordeste 0 -- -- 89
2019-04-02 07:00:00 5.3 5 Nordeste 11 Este 0 -- -- 87
2019-04-02 06:00:00 5.8 5 Este 10 Este 0 -- -- 87
2019-04-02 05:00:00 6.1 5 Este 10 Nordeste 0 -- -- 85
2019-04-02 04:00:00 6.7 5 Este 10 Este 0 -- -- 82
2019-04-02 03:00:00 7.1 4 Nordeste 8 Este 0 -- -- 77
2019-04-02 02:00:00 7.8 4 Este 5 Este 0 -- -- 65
2019-04-02 01:00:00 8.8 3 Este 6 Este 0 -- -- 62
2019-04-02 00:00:00 9.1 4 Oeste 4 Sudoeste 0 -- -- 60
2019-04-01 23:00:00 9.8 2 Sudoeste 9 Sudoeste 0 -- -- 57
2019-04-01 22:00:00 11.3 5 Sudoeste 11 Sudoeste 0 -- -- 54
2019-04-01 21:00:00 12.6 5 Sudoeste 13 Sur 0 -- -- 53
2019-04-01 20:00:00 14 8 Sudoeste 23 Oeste 0 -- -- 49
2019-04-01 19:00:00 15.7 15 Oeste 27 Oeste 0 -- -- 46
2019-04-01 18:00:00 18 18 Oeste 29 Oeste 0 -- -- 42
2019-04-01 17:00:00 18.5 16 Sudoeste 28 Sudoeste 0 -- -- 39
2019-04-01 16:00:00 19 17 Sudoeste 32 Sudoeste 0 -- -- 35
2019-04-01 15:00:00 19.2 14 Oeste 32 Sudoeste 0 -- -- 38
2019-04-01 14:00:00 17.8 14 Oeste 22 Oeste 0 -- -- 42
2019-04-01 13:00:00 17 13 Sudoeste 22 Oeste 0 -- -- 46
2019-04-01 12:00:00 15.7 8 Sudoeste 17 Oeste 0 -- -- 53
2019-04-01 11:00:00 13.4 6 Sudoeste 10 Oeste 0 -- -- 58
2019-04-01 10:00:00 10.4 3 Este 12 Este 0 -- -- 70
2019-04-01 09:00:00 8 4 Este 16 Nordeste 0 -- -- 77
2019-04-01 08:00:00 7.5 6 Este 14 Nordeste 0 -- -- 78
2019-04-01 07:00:00 6.8 6 Este 13 Este 0 -- -- 82
2019-04-01 06:00:00 6.6 5 Este 11 Este 0 -- -- 83
2019-04-01 05:00:00 6.9 5 Este 12 Este 0 -- -- 82
2019-04-01 04:00:00 7 6 Este 10 Este 0 -- -- 82
2019-04-01 03:00:00 7.5 6 Este 9 Este 0 -- -- 82
2019-04-01 02:00:00 8.4 5 Este 9 Este 0 -- -- 78
2019-04-01 01:00:00 9.1 3 Este 6 Este 0 -- -- 75
2019-04-01 00:00:00 9.8 2 Este 5 Sur 0 -- -- 73
2019-03-31 23:00:00 10.2 2 Oeste 6 Sur 0 -- -- 70
2019-03-31 22:00:00 10.9 5 Sur 11 Sudoeste 0 -- -- 69
2019-03-31 21:00:00 11.6 8 Oeste 16 Sudoeste 0 -- -- 68
2019-03-31 20:00:00 13.2 4 Sudoeste 11 Sudoeste 0 -- -- 55
2019-03-31 19:00:00 14.1 6 Oeste 11 Oeste 0 -- -- 50
2019-03-31 18:00:00 14.8 7 Oeste 15 Oeste 0 -- -- 48
2019-03-31 17:00:00 15.4 5 Oeste 14 Sudoeste 0 -- -- 46
2019-03-31 16:00:00 14.8 8 Oeste 19 Sudoeste 0 -- -- 53
2019-03-31 15:00:00 14.8 8 Sudoeste 19 Sudoeste 0 -- -- 53
2019-03-31 14:00:00 13 9 Oeste 18 Oeste 0 -- -- 60
2019-03-31 13:00:00 13.1 11 Sudoeste 17 Sudoeste 0 -- -- 60
2019-03-31 12:00:00 12.4 4 Sudoeste 12 Sudoeste 0 -- -- 61
2019-03-31 11:00:00 11.3 6 Sudoeste 15 Sudoeste 0 -- -- 64
2019-03-31 10:00:00 8.5 2 Sudoeste 7 Este 0 -- -- 71
2019-03-31 09:00:00 4.7 4 Este 14 Nordeste 0 -- -- 77
2019-03-31 08:00:00 3.3 5 Este 12 Nordeste 0 -- -- 81
2019-03-31 07:00:00 3.5 6 Nordeste 19 Nordeste 0 -- -- 80
2019-03-31 06:00:00 3 6 Este 12 Este 0 -- -- 86
2019-03-31 05:00:00 3.7 6 Este 12 Este 0 -- -- 84
2019-03-31 03:00:00 4.7 6 Este 9 Este 0 -- -- 83
2019-03-31 01:00:00 5.3 4 Este 8 Este 0 -- -- 86
2019-03-31 00:00:00 6.3 3 Sudoeste 6 Este 0 -- -- 82
2019-03-30 23:00:00 7.5 4 Sudoeste 10 Sudoeste 0 -- -- 80
2019-03-30 22:00:00 7.7 6 Sudoeste 13 Oeste 0 -- -- 79
2019-03-30 21:00:00 8.1 10 Oeste 15 Oeste 0 -- -- 76
2019-03-30 20:00:00 9.6 5 Sudoeste 14 Sudoeste 0 -- -- 67
2019-03-30 19:00:00 12 10 Sudoeste 20 Sudoeste 0 -- -- 57
2019-03-30 18:00:00 14.5 12 Sudoeste 24 Sudoeste 0 -- -- 45
2019-03-30 17:00:00 15.6 12 Sudoeste 22 Oeste 0 -- -- 38
2019-03-30 16:00:00 15.9 9 Sudoeste 24 Sudoeste 0 -- -- 37
2019-03-30 15:00:00 15.8 7 Sudoeste 21 Oeste 0 -- -- 40
2019-03-30 14:00:00 15 10 Sudoeste 21 Sudoeste 0 -- -- 41
2019-03-30 13:00:00 13.9 10 Sudoeste 23 Sudoeste 0 -- -- 46
2019-03-30 12:00:00 12.8 8 Oeste 22 Sudoeste 0 -- -- 54
2019-03-30 11:00:00 11.2 8 Sudoeste 17 Sudoeste 0 -- -- 56
2019-03-30 10:00:00 9.1 3 Sudoeste 9 Este 0 -- -- 66
2019-03-30 09:00:00 4.9 4 Este 10 Este 0 -- -- 75
2019-03-30 08:00:00 2.8 6 Este 14 Este 0 -- -- 78
2019-03-30 07:00:00 2 7 Este 13 Este 0 -- -- 81
2019-03-30 06:00:00 1 8 Este 13 Este 0 -- -- 85
2019-03-30 05:00:00 1.9 6 Este 11 Este 0 -- -- 81
2019-03-30 04:00:00 2.4 6 Este 9 Este 0 -- -- 79
2019-03-30 03:00:00 3.5 6 Este 10 Este 0 -- -- 74
2019-03-30 02:00:00 5.8 4 Noroeste 18 Este 0 -- -- 65
2019-03-30 01:00:00 5.9 6 Este 19 Este 0 -- -- 66
2019-03-30 00:00:00 5.5 9 Este 17 Sudeste 0 -- -- 69
2019-03-29 23:00:00 6.5 10 Este 15 Nordeste 0 -- -- 65
2019-03-29 22:00:00 7.1 4 Este 9 Oeste 0 -- -- 64
2019-03-29 21:00:00 8.2 6 Oeste 12 Oeste 0 -- -- 60
2019-03-29 20:00:00 9.3 5 Oeste 15 Sudoeste 0 -- -- 53
2019-03-29 19:00:00 11.2 9 Sudoeste 18 Sudoeste 0 -- -- 46
2019-03-29 18:00:00 13 9 Sudoeste 18 Oeste 0 -- -- 45
2019-03-29 17:00:00 13.6 6 Sudoeste 12 Oeste 0 -- -- 46
2019-03-29 16:00:00 13.2 8 Sudoeste 16 Sudoeste 0 -- -- 47
2019-03-29 15:00:00 13.4 8 Oeste 23 Oeste 0 -- -- 46
2019-03-29 14:00:00 14.7 12 Sudoeste 23 Sudoeste 0 -- -- 43
2019-03-29 13:00:00 15.3 6 Sudoeste 19 Sudoeste 0 -- -- 41
2019-03-29 12:00:00 14.5 9 Oeste 20 Oeste 0 -- -- 44
2019-03-29 11:00:00 13.3 9 Sudoeste 17 Sudoeste 0 -- -- 47
2019-03-29 10:00:00 14.3 8 Sudoeste 14 Sudoeste 0 -- -- 46
2019-03-29 09:00:00 9.8 5 Este 13 Este 0 -- -- 60
2019-03-29 08:00:00 6 6 Este 13 Nordeste 0 -- -- 72
2019-03-29 07:00:00 4.4 7 Este 13 Este 0 -- -- 76
2019-03-29 06:00:00 4.6 5 Este 15 Este 0 -- -- 74
2019-03-29 05:00:00 4.9 8 Este 14 Nordeste 0 -- -- 74
2019-03-29 04:00:00 4.9 6 Nordeste 20 Nordeste 0 -- -- 74
2019-03-29 03:00:00 4.5 8 Este 12 Este 0 -- -- 77
2019-03-29 02:00:00 4.3 6 Este 10 Este 0 -- -- 78
2019-03-29 01:00:00 4.6 6 Este 9 Nordeste 0 -- -- 77
2019-03-29 00:00:00 5.7 5 Este 6 Este 0 -- -- 73
2019-03-28 23:00:00 6.7 5 Este 7 Este 0 -- -- 73
2019-03-28 22:00:00 7.9 2 Nordeste 10 Oeste 0 -- -- 67
2019-03-28 21:00:00 8.4 9 Oeste 15 Oeste 0 -- -- 66
2019-03-28 20:00:00 9.5 5 Sudoeste 14 Sudoeste 0 -- -- 55
2019-03-28 19:00:00 11.6 10 Sudoeste 22 Sudoeste 0 -- -- 47
2019-03-28 18:00:00 14.6 12 Sudoeste 23 Sudoeste 0 -- -- 39
2019-03-28 17:00:00 16.3 15 Oeste 24 Oeste 0 -- -- 35
2019-03-28 16:00:00 16.8 12 Sudoeste 25 Sudoeste 0 -- -- 33
2019-03-28 15:00:00 16.3 15 Sudoeste 27 Sudoeste 0 -- -- 35
2019-03-28 14:00:00 16 13 Sudoeste 28 Oeste 0 -- -- 35
2019-03-28 13:00:00 15.2 17 Sudoeste 30 Sudoeste 0 -- -- 36
2019-03-28 12:00:00 14.2 8 Sudoeste 20 Oeste 0 -- -- 41
2019-03-28 11:00:00 12.4 9 Sudoeste 15 Oeste 0 -- -- 47
2019-03-28 10:00:00 11 6 Sudoeste 13 Sudoeste 0 -- -- 47
2019-03-28 09:00:00 8.1 5 Este 14 Este 0 -- -- 51
2019-03-28 08:00:00 4.2 10 Este 15 Este 0 -- -- 59
2019-03-28 07:00:00 2.4 9 Este 17 Este 0 -- -- 64
2019-03-28 06:00:00 2.5 8 Este 15 Este 0 -- -- 64
2019-03-28 05:00:00 3.2 7 Este 15 Nordeste 0 -- -- 61
2019-03-28 04:00:00 3.7 10 Este 17 Este 0 -- -- 59
2019-03-28 03:00:00 3.8 9 Este 15 Nordeste 0 -- -- 63
2019-03-28 02:00:00 4.1 8 Este 13 Este 0 -- -- 69
2019-03-28 01:00:00 4.5 6 Este 11 Este 0 -- -- 73
2019-03-28 00:00:00 5.5 6 Este 11 Este 0 -- -- 71
2019-03-27 23:00:00 6.1 6 Este 8 Este 0 -- -- 69
2019-03-27 22:00:00 7.7 3 Nordeste 6 Sudoeste 0 -- -- 63
2019-03-27 21:00:00 8.8 4 Sudoeste 12 Oeste 0 -- -- 59
2019-03-27 20:00:00 9.8 5 Oeste 17 Sudoeste 0 -- -- 56
2019-03-27 19:00:00 11.9 10 Sudoeste 26 Sudoeste 0 -- -- 50
2019-03-27 18:00:00 16 9 Oeste 21 Oeste 0 -- -- 30
2019-03-27 17:00:00 16.6 12 Sudoeste 25 Sudoeste 0 -- -- 30
2019-03-27 16:00:00 17 13 Oeste 31 Sudoeste 0 -- -- 29
2019-03-27 15:00:00 16.7 9 Sur 27 Sudoeste 0 -- -- 30
2019-03-27 14:00:00 16.4 10 Sudoeste 24 Sudoeste 0 -- -- 33
2019-03-27 13:00:00 15.8 13 Sudoeste 24 Sudoeste 0 -- -- 27
2019-03-27 12:00:00 14.4 9 Oeste 16 Sudoeste 0 -- -- 34
2019-03-27 11:00:00 12.7 5 Oeste 14 Sudoeste 0 -- -- 35
2019-03-27 10:00:00 11.1 9 Sudoeste 13 Sudoeste 0 -- -- 38
2019-03-27 09:00:00 7.9 3 Este 12 Este 0 -- -- 33
2019-03-27 08:00:00 3.9 7 Este 17 Nordeste 0 -- -- 41
2019-03-27 07:00:00 2.2 10 Este 16 Este 0 -- -- 43
2019-03-27 06:00:00 2.3 10 Este 17 Este 0 -- -- 43
2019-03-27 05:00:00 2.6 8 Este 13 Este 0 -- -- 44
2019-03-27 04:00:00 3.5 5 Este 8 Este 0 -- -- 45
2019-03-27 03:00:00 4.2 0 Calma 9 Sudoeste 0 -- -- 49
2019-03-27 02:00:00 6.6 2 Este 9 Sudoeste 0 -- -- 31
2019-03-27 01:00:00 7.7 5 Sudoeste 33 Este 0 -- -- 29
2019-03-27 00:00:00 9.5 12 Este 37 Nordeste 0 -- -- 24